Regional Weather Roundup
Issued by NWS

Home | Current Version | Previous Version | Graphics & Text | Print | Product List | Glossary On
Versions: 1 2 3 4 5 6 7 8 9 10 11 12 13 14 15 16 17 18 19 20 21 22 23 24 25 26 27 28 29 30 31 32 33 34 35 36 37 38 39 40 41 42 43 44 45 46 47 48 49 50
000
ASUS43 KBIS 270602
RWRND

NORTH DAKOTA REGIONAL WEATHER ROUNDUP
NATIONAL WEATHER SERVICE BISMARCK ND
100 AM CDT FRI MAY 27 2016

NOTE: "FAIR" INDICATES FEW OR NO CLOUDS BELOW 12,000 FEET WITH NO
SIGNIFICANT WEATHER AND/OR OBSTRUCTIONS TO VISIBILITY.


NDZ001>003-009>011-017-270700-
NORTHWEST NORTH DAKOTA

CITY           SKY/WX    TMP DP  RH WIND       PRES   REMARKS
WILLISTON      CLOUDY    53  49  86 N6        29.88R
6HR MIN TEMP:  50; 6HR MAX TEMP:  66;

MINOT          LGT RAIN  57  53  86 N10       29.83S
MINOT AFB      LGT RAIN  55  54  95 NW7       29.83S
$$

NDZ018>021-031>035-040>046-270700-
SOUTHWEST NORTH DAKOTA

CITY           SKY/WX    TMP DP  RH WIND       PRES   REMARKS
BISMARCK       PTCLDY    50  48  93 CALM      29.82S
6HR MIN TEMP:  50; 6HR MAX TEMP:  71;

DICKINSON      CLOUDY    46  42  86 NW6       29.83F
GARRISON         N/A     51  48  89 W3        29.82F
6HR MIN TEMP:  50; 6HR MAX TEMP:  66;

HETTINGER ARPT CLEAR     41  37  86 CALM      29.86F
$$

NDZ004>008-012>016-024-026-027-054-270700-
NORTHEAST NORTH DAKOTA

CITY           SKY/WX    TMP DP  RH WIND       PRES   REMARKS
GRAND FORKS    CLOUDY    56  53  90 W3        29.78S
GRND FRKS AFB  CLOUDY    53  53 100 NW5       29.78S FOG
DEVILS LAKE    MOCLDY    52  52 100 CALM      29.82S
$$

NDZ022-023-025-028>030-036>039-047>053-270700-
SOUTHEAST NORTH DAKOTA

CITY           SKY/WX    TMP DP  RH WIND       PRES   REMARKS
FARGO          CLOUDY    60  56  86 N8        29.80R
6HR MIN TEMP:  59; 6HR MAX TEMP:  76; 6HR PCP:  0.04;

JAMESTOWN      CLOUDY    54  53  97 N7        29.78F
$$





USA.gov is the U.S. government's official web portal to all federal, state and local government web resources and services.